[[{"header":{"parameterUnit":"m.s-1","parameterCategory":1,"la1":30.2991,"la2":30.254,"lo1":-89.0895,"lo2":-89.0444,"dy":0.0017,"dx":0.0017,"nx":28,"ny":28,"refTime":"2024-08-16T03:00:00:Z","depth":0,"parameterNumber":2,"parameterNumberName":"U-component_of_WINDS"},"data":[0,0,0,0,0,0,0,0,0,0,0,0,0,0,0,0,0,0,0,0,0,0,0,0,0,0,0,0,0,0,0,0,0,0,0,0,0,0,0,0,0,0,0,0,0,0,0,0,0,0,0,0,0,0,0,0,0,0,0.551,0.5511,0,0.5656,0.5658,0.5659,0.573,0.573,0.573,0.573,0.5884,0.5888,0.5892,0,0,0,0,0,0,0,0,0,0,0,0,0,0.5292,0.5296,0.5509,0.5511,0.5513,0.5656,0.5658,0.566,0.573,0.573,0.573,0.573,0.5882,0.5887,0.5892,0,0,0,0,0,0,0,0,0,0,0,0,0,0.5407,0.5297,0.5509,0.5565,0.5572,0.5655,0.5658,0.566,0.573,0.573,0.573,0.573,0.5881,0.5887,0.5893,0.5932,0,0,0.5912,0.5914,0,0,0,0,0,0,0,0,0.5401,0.5415,0.5555,0.5562,0.5569,0.5675,0.5637,0.5752,0.573,0.567,0.573,0.573,0.5814,0.5826,0.5854,0.5939,0.5946,0.5912,0.5916,0.5918,0.592,0,0,0,0,0,0,0,0.5393,0.5409,0.5568,0.5557,0.5566,0.5584,0.56,0.5659,0.5741,0.5676,0.5681,0.5697,0.5818,0.5848,0.5858,0.5948,0.5912,0.5917,0.5921,0.5924,0.6072,0.6072,0,0,0,0,0,0,0.5375,0.5402,0.5563,0.5572,0.5483,0.5588,0.5606,0.5641,0.5741,0.5756,0.5697,0.57,0.5837,0.5851,0.5863,0.5916,0.5918,0.5924,0.5928,0.6072,0.6072,0.6072,0,0,0,0,0,0,0.537,0.5389,0.5557,0.5489,0.5511,0.5592,0.563,0.5644,0.5673,0.5757,0.5772,0.5712,0.5838,0.5855,0.5914,0.5922,0.5927,0.5933,0.6072,0.6072,0.6072,0.602,0,0,0,0,0,0,0.5364,0.5387,0.5402,0.5488,0.5515,0.5604,0.5631,0.5647,0.5684,0.5689,0.5775,0.5789,0.5839,0.5904,0.592,0.593,0.5937,0.6071,0.6072,0.6072,0.6021,0.6019,0.6016,0,0,0,0,0,0.5356,0.5383,0.5403,0.5422,0.5536,0.5605,0.562,0.5676,0.5684,0.57,0.5754,0.5786,0.5918,0.591,0.5928,0.594,0.6071,0.6072,0.6072,0.6023,0.6019,0.6016,0,0,0,0,0,0,0.5297,0.5395,0.5418,0.5474,0.553,0.5616,0.5639,0.567,0.5726,0.5729,0.5796,0.5815,0.5868,0.5911,0.5899,0.5983,0.5998,0.6002,0.5954,0.5951,0.5948,0.5938,0.5943,0,0,0,0,0,0.529,0.5337,0.5421,0.5461,0.5488,0.5558,0.5591,0.5628,0.569,0.5715,0.5772,0.5831,0.5886,0.5921,0.5976,0.6027,0.6047,0.6045,0.6042,0.604,0.6043,0.6072,0.6072,0.6074,0.6074,0.6074,0,0,0.5277,0.5336,0.5362,0.5451,0.5499,0.5547,0.5578,0.5628,0.5664,0.5723,0.5782,0.5826,0.5896,0.5951,0.5978,0.5988,0.6046,0.604,0.6038,0.6042,0.6073,0.6072,0.6072,0.6075,0.6074,0.6074,0,0,0.5277,0.5327,0.5366,0.5413,0.5485,0.5531,0.554,0.5622,0.5653,0.5713,0.5757,0.5801,0.5894,0.5942,0.5979,0.5995,0.6027,0.6011,0.5998,0.6025,0.6025,0.6025,0.6031,0.6032,0.6014,0.6014,0.6014,0,0.5252,0.5325,0.5382,0.5429,0.5466,0.552,0.556,0.5603,0.5689,0.5714,0.5723,0.584,0.5891,0.5958,0.5961,0.5989,0.6002,0.6002,0.602,0.6021,0.6022,0.6028,0.603,0.6011,0.6011,0.6012,0.6012,0,0.5291,0.534,0.5363,0.5444,0.5484,0.5527,0.5591,0.5624,0.5658,0.5703,0.5763,0.5826,0.5894,0.5912,0.5947,0.5984,0.5987,0.6007,0.6023,0.6019,0.6025,0.6028,0.6008,0.6009,0.6009,0.601,0,0,0.526,0.537,0.5377,0.5414,0.5496,0.5536,0.5581,0.5646,0.5674,0.5731,0.577,0.5847,0.5865,0.5907,0.5946,0.5971,0.5979,0.5988,0.5991,0.5984,0.6023,0.6007,0.6008,0.6,0.6001,0.6001,0.6016,0,0.5272,0.5354,0.5406,0.5468,0.5514,0.5565,0.5604,0.5659,0.5701,0.5747,0.5795,0.5848,0.5869,0.5894,0.592,0.5972,0.5987,0.5972,0.6038,0.6039,0.6019,0.6012,0.5996,0.6008,0.602,0.602,0.602,0,0.5298,0.5352,0.5418,0.5493,0.5515,0.5549,0.5612,0.5655,0.5718,0.5747,0.5792,0.5832,0.5881,0.5892,0.5961,0.5949,0.5979,0.6008,0.601,0.6019,0.603,0.6021,0.6013,0.6015,0.6025,0.6025,0.6024,0,0.5268,0.5358,0.5409,0.5438,0.5528,0.5551,0.5589,0.5652,0.5687,0.5742,0.5766,0.5827,0.586,0.5906,0.5961,0.5964,0.6024,0.604,0.605,0.6049,0.6062,0.606,0.6058,0.608,0.608,0.608,0.608,0,0.5277,0.5315,0.5396,0.5428,0.5472,0.5531,0.5573,0.5615,0.567,0.5711,0.5758,0.5795,0.5865,0.5911,0.5954,0.6004,0.6019,0.6045,0.6056,0.6041,0.6037,0.6062,0.6062,0.608,0.608,0.608,0.608,0,0.5252,0.5308,0.5366,0.5446,0.5466,0.5495,0.5563,0.5595,0.564,0.569,0.5706,0.5776,0.5832,0.589,0.5967,0.5996,0.6044,0.606,0.6023,0.6029,0.6036,0.6034,0.605,0.6055,0.6073,0.6072,0.6072,0,0.5254,0.5284,0.5366,0.5396,0.5432,0.548,0.5516,0.5575,0.561,0.5682,0.5706,0.5765,0.5815,0.5902,0.5961,0.6019,0.6036,0.6038,0.6046,0.6029,0.6036,0.6034,0.6037,0.6035,0.6035,0.6034,0.6034,0,0.5251,0.5277,0.5326,0.5384,0.5425,0.5475,0.5526,0.5548,0.5616,0.5653,0.571,0.5749,0.5826,0.5884,0.5949,0.5989,0.6023,0.6031,0.6036,0.6021,0.5998,0.6011,0.6016,0.6031,0.6031,0.6031,0.6031,0.6032,0.524,0.5269,0.533,0.5383,0.5427,0.5473,0.5507,0.5554,0.5603,0.5669,0.5701,0.5757,0.5818,0.5909,0.5948,0.5993,0.6003,0.6011,0.6013,0.6014,0.601,0.599,0.6005,0.6005,0.6006,0.6006,0.6006,0,0.524,0.5281,0.5329,0.5398,0.5439,0.5466,0.5523,0.5556,0.5605,0.5658,0.5706,0.5771,0.5827,0.5888,0.5948,0.5972,0.5989,0.5986,0.5985,0.5994,0.5998,0.5987,0.5971,0.5971,0.5971,0.5971,0.5971,0.5971,0.5244,0.5294,0.5327,0.5398,0.544,0.5495,0.5525,0.5568,0.561,0.568,0.5726,0.5765,0.5822,0.5886,0.5938,0.5955,0.5974,0.5966,0.5987,0.5991,0.5994,0.5996,0.5986,0.597,0.597,0.5979,0.598,0.598]},{"header":{"parameterUnit":"m.s-1","parameterCategory":1,"la1":30.2991,"la2":30.254,"lo1":-89.0895,"lo2":-89.0444,"dy":0.0017,"dx":0.0017,"nx":28,"ny":28,"refTime":"2024-08-16T03:00:00:Z","depth":0,"parameterNumber":3,"parameterNumberName":"V-component_of_WINDS"},"data":[0,0,0,0,0,0,0,0,0,0,0,0,0,0,0,0,0,0,0,0,0,0,0,0,0,0,0,0,0,0,0,0,0,0,0,0,0,0,0,0,0,0,0,0,0,0,0,0,0,0,0,0,0,0,0,0,0,0,3.3409,3.3408,0,3.3329,3.3328,3.3327,3.3319,3.332,3.3321,3.3322,3.3232,3.3228,3.3225,0,0,0,0,0,0,0,0,0,0,0,0,0,3.3548,3.3545,3.3409,3.3408,3.3407,3.3329,3.3328,3.3327,3.3319,3.332,3.3321,3.3322,3.3233,3.3229,3.3225,0,0,0,0,0,0,0,0,0,0,0,0,0,3.3479,3.3544,3.341,3.3394,3.3392,3.333,3.3328,3.3327,3.3319,3.332,3.3322,3.3323,3.3234,3.3229,3.3224,3.3169,0,0,3.321,3.3208,0,0,0,0,0,0,0,0,3.3483,3.3474,3.3397,3.3395,3.3393,3.3336,3.3344,3.3274,3.3319,3.3346,3.3322,3.3323,3.3265,3.3257,3.3239,3.3165,3.3161,3.3209,3.3206,3.3204,3.3203,0,0,0,0,0,0,0,3.3488,3.3478,3.3377,3.3396,3.3393,3.3389,3.3381,3.3331,3.3299,3.3344,3.3343,3.3334,3.3263,3.3244,3.3237,3.316,3.3209,3.3205,3.3202,3.32,3.3035,3.3033,0,0,0,0,0,0,3.3497,3.3482,3.338,3.3375,3.3442,3.3385,3.3376,3.3353,3.33,3.3293,3.3333,3.3334,3.3251,3.3243,3.3234,3.3165,3.3204,3.32,3.3197,3.3036,3.3035,3.3033,0,0,0,0,0,0,3.35,3.3488,3.3383,3.3428,3.3415,3.3382,3.3355,3.335,3.3331,3.3292,3.3285,3.332,3.3252,3.3241,3.3186,3.3162,3.3198,3.3193,3.3038,3.3036,3.3034,3.3027,0,0,0,0,0,0,3.3504,3.3489,3.3469,3.3428,3.3412,3.3339,3.3354,3.3348,3.3324,3.3324,3.3277,3.327,3.3252,3.3193,3.3181,3.3156,3.319,3.304,3.3037,3.3034,3.3029,3.3025,3.3021,0,0,0,0,0,3.3509,3.3469,3.3469,3.3456,3.3388,3.3337,3.3328,3.331,3.3322,3.33,3.3275,3.3272,3.3167,3.3187,3.3174,3.3147,3.3041,3.3038,3.3035,3.3031,3.3026,3.3021,0,0,0,0,0,0,3.3505,3.3463,3.3462,3.3409,3.3377,3.3336,3.3309,3.3305,3.3268,3.3269,3.3246,3.3236,3.3181,3.3159,3.3182,3.309,3.3105,3.3099,3.3107,3.3101,3.3098,3.3103,3.3186,0,0,0,0,0,3.3499,3.3465,3.3429,3.3384,3.3369,3.3342,3.3319,3.3309,3.3274,3.326,3.323,3.3194,3.3153,3.3126,3.3086,3.3027,3.3015,3.3001,3.2997,3.2994,3.2988,3.2954,3.2947,3.3022,3.3022,3.3022,0,0,3.3484,3.3457,3.3436,3.3383,3.3357,3.332,3.333,3.329,3.3261,3.3252,3.3199,3.3177,3.3135,3.3077,3.305,3.3057,3.2965,3.299,3.2988,3.2983,3.2949,3.2942,3.2936,3.3019,3.302,3.302,0,0,3.3438,3.3415,3.3376,3.335,3.3312,3.3295,3.3285,3.3245,3.3231,3.3178,3.3171,3.3134,3.3064,3.3035,3.301,3.2954,3.2948,3.2941,3.2919,3.2886,3.288,3.2874,3.2853,3.2845,3.2936,3.2936,3.2936,0,3.3424,3.3369,3.3355,3.3315,3.3291,3.3285,3.3243,3.3218,3.3168,3.315,3.3159,3.3071,3.3043,3.2977,3.2964,3.2945,3.2932,3.2946,3.2882,3.2877,3.2871,3.285,3.2843,3.2935,3.2935,3.2935,3.2935,0,3.3353,3.3315,3.3287,3.3242,3.3215,3.3174,3.3151,3.3125,3.3117,3.3098,3.3043,3.3009,3.2962,3.2946,3.2936,3.2879,3.2884,3.2888,3.2902,3.2864,3.2844,3.2836,3.2934,3.2934,3.2935,3.2935,0,0,3.33,3.3249,3.3239,3.3218,3.3176,3.3145,3.3104,3.306,3.3038,3.3003,3.2966,3.2907,3.2911,3.2884,3.2871,3.2842,3.2797,3.2849,3.2847,3.2839,3.273,3.2727,3.2718,3.2795,3.2793,3.2792,3.2733,0,3.3248,3.3177,3.3163,3.31,3.3064,3.3058,3.3021,3.299,3.2971,3.2935,3.2913,3.2872,3.2881,3.2864,3.2835,3.2809,3.2775,3.2813,3.2757,3.2755,3.2767,3.2707,3.2703,3.265,3.2726,3.2724,3.2723,0,3.3178,3.3145,3.3079,3.3042,3.3026,3.2994,3.2953,3.292,3.2884,3.2872,3.2842,3.2832,3.2786,3.2804,3.2739,3.2765,3.2742,3.2725,3.2723,3.2715,3.2736,3.2697,3.2632,3.2624,3.2711,3.2712,3.2713,0,3.3145,3.3084,3.3036,3.3019,3.2975,3.2952,3.2932,3.2898,3.2872,3.2835,3.2818,3.2776,3.2752,3.2718,3.2696,3.2712,3.2632,3.2649,3.2619,3.2619,3.2601,3.2602,3.253,3.2588,3.2588,3.2588,3.2589,0,3.3088,3.3047,3.3021,3.2992,3.2945,3.2929,3.2883,3.2862,3.2832,3.2797,3.2788,3.2754,3.2729,3.2691,3.2673,3.2621,3.2611,3.2598,3.2593,3.2598,3.2599,3.258,3.2583,3.2586,3.2587,3.2587,3.2587,0,3.3042,3.3024,3.2971,3.2935,3.2925,3.2892,3.2859,3.2829,3.2811,3.2766,3.2754,3.2724,3.2679,3.2655,3.2598,3.2586,3.2527,3.2525,3.254,3.2538,3.2509,3.2511,3.2421,3.2408,3.2476,3.2476,3.2475,0,3.3006,3.2975,3.2936,3.2913,3.2894,3.2857,3.2832,3.2814,3.2787,3.2744,3.2719,3.2674,3.2637,3.2565,3.2536,3.2492,3.2488,3.246,3.2481,3.2487,3.2486,3.2488,3.2484,3.2455,3.2455,3.2454,3.2454,0,3.2944,3.2936,3.2902,3.2864,3.2835,3.2804,3.2772,3.2753,3.273,3.27,3.2656,3.2628,3.2571,3.2525,3.248,3.2456,3.245,3.2448,3.2438,3.2441,3.2451,3.2444,3.2528,3.2449,3.245,3.245,3.245,3.2451,3.2901,3.2873,3.2841,3.2803,3.2778,3.2749,3.272,3.2698,3.2662,3.2616,3.2607,3.2559,3.2523,3.2461,3.2436,3.2397,3.2402,3.2389,3.2385,3.2381,3.238,3.2459,3.2388,3.2389,3.2389,3.2389,3.2389,0,3.2836,3.2816,3.2782,3.274,3.2709,3.271,3.2675,3.2649,3.2608,3.2576,3.2541,3.2489,3.2445,3.2414,3.2368,3.2343,3.2339,3.2331,3.2332,3.2326,3.2378,3.239,3.2335,3.2335,3.2335,3.2335,3.2335,3.2335,3.2799,3.2752,3.2741,3.268,3.266,3.2615,3.2595,3.2568,3.2542,3.2486,3.2451,3.2432,3.2399,3.2351,3.2311,3.2302,3.2285,3.2278,3.2269,3.2317,3.2323,3.2328,3.2339,3.2274,3.2274,3.222,3.2219,3.2219]}]]